Location: Newark
(52.8300°N, 8.0000°E)
Time: 16:42:00
(UTC+00:00)

Envisat - Visible Passes

Search period start: 19 January 2020 00:00
Search period end: 29 January 2020 00:00
Orbit: 764 x 766 km, 98.1° (Epoch: 19 January)

Date Brightness Start Highest point End Pass type
(mag) Time Alt. Az. Time Alt. Az. Time Alt. Az.
19 Jan 5.9 04:55:43 10° NE 04:58:59 17° E 05:02:15 10° SE visible
19 Jan 3.0 06:33:36 10° NNE 06:38:43 86° WNW 06:43:48 10° SSW visible
19 Jan 4.6 17:54:45 10° SSW 17:59:27 37° W 18:04:11 10° NNW visible
20 Jan 4.0 05:56:53 10° NNE 06:01:51 50° E 06:06:47 10° S visible
20 Jan 3.3 17:17:25 10° S 17:22:29 72° WSW 17:27:36 10° NNW visible
20 Jan 6.2 19:00:25 10° WSW 19:02:28 12° W 19:04:32 10° WNW visible
21 Jan 5.3 05:20:31 10° NE 05:24:48 26° E 05:29:04 10° SSE visible
21 Jan 3.0 16:40:44 10° SSE 16:45:44 61° ENE 16:50:46 10° N visible
21 Jan 5.4 18:21:06 10° SW 18:25:10 24° W 18:29:16 10° NW visible
22 Jan 6.2 04:44:57 10° NE 04:47:32 14° E 04:50:07 10° ESE visible
22 Jan 3.2 06:22:18 10° NNE 06:27:26 80° ESE 06:32:31 10° SSW visible
22 Jan 4.2 17:43:13 10° S 17:48:04 45° W 17:52:59 10° NNW visible
23 Jan 4.4 05:45:40 10° NNE 05:50:30 41° E 05:55:18 10° SSE visible
23 Jan 3.1 17:06:06 10° SSE 17:11:11 86° WSW 17:16:19 10° NNW visible
23 Jan 6.0 18:48:06 10° WSW 18:51:00 15° W 18:53:55 10° NW visible
24 Jan 5.6 05:09:27 10° NE 05:13:23 22° E 05:17:18 10° SE visible
24 Jan 3.2 16:29:34 10° SE 16:34:29 51° ENE 16:39:24 10° N visible
24 Jan 5.1 18:09:23 10° SSW 18:13:46 29° W 18:18:10 10° NNW visible
25 Jan 6.3 04:34:34 10° ENE 04:36:04 11° E 04:37:33 10° E visible
25 Jan 3.5 06:11:01 10° NNE 06:16:07 66° ESE 06:21:10 10° S visible
25 Jan 3.8 17:31:45 10° S 17:36:44 55° W 17:41:45 10° NNW visible
26 Jan 4.8 05:34:29 10° NNE 05:39:08 34° E 05:43:44 10° SSE visible
26 Jan 3.0 16:54:49 10° SSE 16:59:54 79° ENE 17:05:00 10° NNW visible
26 Jan 5.8 18:36:03 10° SW 18:39:32 18° W 18:43:03 10° NW visible
27 Jan 5.9 04:58:28 10° NE 05:01:57 18° E 05:05:25 10° SE visible
27 Jan 3.0 06:36:30 10° NNE 06:41:37 80° WNW 06:46:42 10° SSW visible
27 Jan 4.7 17:57:45 10° SSW 18:02:22 34° W 18:07:01 10° NNW visible
28 Jan 3.9 05:59:46 10° NNE 06:04:46 54° E 06:09:45 10° S visible
28 Jan 3.4 17:20:21 10° S 17:25:24 67° WSW 17:30:30 10° NNW visible
28 Jan 6.3 19:03:52 10° W 19:05:26 11° W 19:07:01 10° WNW visible
